Location: Newark
(47.3150°N, 5.1150°E)
Time: 11:03:20
(UTC+00:00)

AO-7 - Pass Details

Date: 19 December 2019
Orbit: 1440 x 1459 km, 101.8° (Epoch: 17 January)

Event Time Altitude Azimuth Distance (km) Brightness Sun altitude
Rises 02:22:31 0° 24° (NNE) 4,565 ? -49.3°
Reaches altitude 10° 02:25:45 10° 34° (NE) 3,586 ? -48.7°
Maximum altitude 02:33:04 32° 95° (E) 2,281 ? -47.6°
Enters shadow 02:34:30 31° 113° (ESE) 2,344 ? -47.3°
